GFSCGP_sfc_rhum_102.txt.gz
RH
49 59 63 54 48 47 52 58 61 50 42 43 40 38 31 27 26 25 26 30 47 50 50 63 74 74 74 74 81 76 80 82 84 87 81 83 83 89 61 41 37 38 40 44
54 61 45 46 49 53 56 60 60 50 41 42 44 39 32 26 26 23 24 35 38 54 61 78 78 74 70 73 84 78 79 88 82 85 91 92 87 90 54 48 39 41 39 45
61 48 43 47 54 54 59 64 63 60 53 45 45 46 42 28 26 23 24 30 34 46 84 79 80 74 81 79 80 85 90 86 88 89 95 92 87 84 79 56 50 43 39 45
49 46 49 56 56 54 69 52 54 59 70 74 44 67 52 36 30 29 47 55 65 87 88 84 76 81 83 83 83 88 90 90 94 94 93 90 90 85 88 70 54 46 41 43
36 44 54 61 51 51 57 54 63 60 65 82 70 79 57 48 46 62 60 60 60 82 88 86 79 82 80 90 97 94 95 95 96 94 93 94 89 82 81 81 73 55 46 43
36 35 52 51 46 47 47 66 74 74 77 91 84 74 64 90 85 79 71 67 65 69 75 83 84 78 80 89 96 96 96 96 96 95 93 91 89 88 83 80 78 67 55 52
47 41 47 47 52 51 60 87 98 90 97 96 91 87 74 82 81 86 84 79 85 86 85 91 90 92 92 93 95 96 96 98 95 94 92 95 92 81 83 82 82 69 57 56
64 59 50 40 48 59 72 82 100 99 98 96 90 98 89 70 74 84 75 84 88 93 96 99 94 93 95 94 95 96 97 97 97 95 96 94 87 91 81 79 69 64 56 55
61 62 43 37 38 55 68 93 89 100 95 96 88 78 72 68 74 85 87 83 90 94 96 96 94 96 98 98 96 96 97 98 96 94 92 86 78 72 69 65 68 62 58 50
48 65 43 37 39 55 73 79 92 95 95 94 76 58 65 76 84 88 92 96 89 90 94 96 94 93 94 93 90 90 90 92 85 73 60 61 58 52 55 56 59 51 52 47
48 49 44 40 43 51 52 61 82 88 93 95 92 66 51 57 58 61 84 94 89 74 77 68 62 65 63 59 54 49 61 50 53 53 45 43 43 42 41 43 45 51 47 49
47 51 60 45 34 35 33 41 68 87 89 88 87 76 51 58 56 57 59 58 61 59 57 54 51 47 48 50 48 46 47 45 44 40 39 41 40 45 40 43 48 42 45 47
42 51 63 43 36 38 42 36 42 76 85 85 85 70 49 54 56 58 62 66 60 53 52 51 52 50 50 49 46 42 40 42 38 37 40 42 42 40 42 38 41 47 48 48
50 56 50 59 47 48 49 41 37 60 50 50 68 47 36 54 58 57 57 58 55 50 49 51 51 52 50 44 44 46 45 42 44 42 44 48 46 42 46 46 45 44 43 43
42 51 52 48 44 44 46 46 39 40 42 40 42 45 42 51 52 52 54 52 50 48 46 46 50 49 47 45 39 40 42 43 46 47 50 51 50 50 50 52 52 51 50 50
37 46 57 55 43 45 46 40 40 34 29 37 46 51 51 53 49 50 52 49 49 46 44 43 43 44 47 48 48 49 52 50 47 50 52 52 51 52 55 55 55 57 60 62
35 57 64 66 49 50 46 39 40 34 47 40 46 50 50 52 49 54 53 47 47 46 44 44 45 46 47 46 45 49 52 53 51 50 50 49 51 54 57 58 60 64 69 70
37 53 65 74 61 61 40 35 33 43 48 50 48 50 47 50 51 56 59 49 48 45 46 47 49 51 51 49 47 47 48 51 49 50 50 52 55 58 62 67 71 75 76 77
35 49 68 80 80 54 41 33 33 38 44 47 47 48 46 46 50 54 51 50 50 48 50 52 53 51 50 47 46 46 49 51 53 56 57 57 60 63 67 71 75 76 78 81
48 52 64 73 79 72 47 35 32 32 40 40 42 45 45 50 59 55 53 53 52 52 50 48 49 48 48 50 50 54 60 59 59 59 58 60 62 65 69 72 75 77 83 77
60 67 72 77 86 64 53 38 38 36 38 41 41 42 48 53 58 53 52 53 52 50 49 49 49 52 53 53 56 62 62 62 60 59 60 63 66 66 68 74 77 81 82 81
63 78 81 78 84 71 40 40 38 40 48 41 47 53 53 59 60 58 55 57 56 56 54 52 53 55 55 56 61 65 66 64 63 64 65 68 69 62 63 75 79 78 76 74
60 52 61 66 65 47 42 40 44 45 41 43 47 55 54 60 60 60 60 58 55 54 55 54 57 61 65 66 66 70 73 68 67 68 72 72 71 68 68 69 70 70 74 83
47 51 64 57 50 48 39 41 41 42 39 40 46 54 56 57 61 61 59 58 57 58 56 56 60 63 70 74 74 77 73 67 68 72 76 75 75 71 70 65 68 75 86 93
42 49 48 57 48 45 42 39 40 43 44 43 46 54 53 58 62 57 60 58 58 57 58 60 63 68 77 80 78 74 71 69 72 78 77 82 76 74 75 73 76 81 87 85
51 41 39 34 41 47 41 43 42 43 44 44 46 56 59 58 60 60 59 58 58 59 63 68 69 78 83 81 79 78 76 74 76 79 82 81 72 76 80 85 84 70 66 65

GFSCGP_sfc_rhum_105.txt.gz
RH
50 60 65 54 54 53 60 68 69 58 48 54 53 50 42 35 31 30 28 27 34 62 65 65 71 74 82 85 82 76 83 84 88 88 82 83 79 88 75 44 35 38 45 48
58 66 47 48 52 57 59 65 65 58 49 52 56 53 42 33 31 29 27 26 30 38 54 64 75 82 79 80 82 86 85 87 87 88 90 89 85 94 81 54 41 41 40 47
68 47 44 51 56 58 61 66 68 65 57 56 56 62 51 38 31 27 27 35 50 44 48 87 84 82 80 83 82 82 81 86 85 85 92 94 93 91 88 66 45 44 40 45
49 43 43 58 60 59 72 54 54 65 74 93 66 90 64 45 41 43 66 68 71 72 74 85 85 84 83 85 85 86 91 89 86 90 84 83 85 87 96 94 86 67 41 46
38 38 47 60 49 54 58 56 69 76 86 90 81 97 78 57 84 85 81 76 72 72 90 89 83 81 81 87 91 96 95 96 94 89 90 91 94 96 95 92 75 60 44 44
38 37 51 52 46 50 50 71 80 78 84 95 97 97 78 95 87 84 88 86 86 81 95 92 83 79 81 87 94 96 95 96 96 94 97 98 94 95 94 93 95 90 68 50
47 41 41 50 53 52 69 87 94 89 95 87 95 95 81 81 83 84 96 96 95 97 94 93 93 89 87 92 93 95 93 97 96 97 98 98 96 98 95 93 88 88 80 62
65 53 43 42 48 52 78 88 100 100 98 97 84 100 89 70 76 80 83 90 90 89 92 98 96 95 96 95 96 96 96 98 98 97 97 98 99 99 96 89 84 78 70 60
61 60 43 43 38 58 66 92 91 97 97 95 90 70 76 62 72 83 90 89 91 96 97 97 97 98 98 98 93 96 98 98 98 98 98 99 97 95 95 84 64 67 60 54
51 67 45 38 44 56 78 81 92 96 91 90 85 69 69 60 72 74 91 97 91 89 93 93 91 93 94 96 98 98 97 97 98 98 97 94 90 82 70 64 64 59 52 53
50 53 45 40 44 47 48 51 87 87 92 96 93 69 57 61 58 64 85 93 90 81 73 72 68 77 65 65 79 86 88 85 68 56 51 48 48 47 48 50 50 53 51 52
49 54 64 42 36 40 44 42 72 86 86 88 92 78 56 64 59 63 70 80 88 82 64 52 49 49 58 57 59 58 50 46 44 43 42 44 43 44 49 50 44 49 51 51
44 53 55 36 35 38 46 44 46 81 80 83 84 62 48 56 61 63 69 61 62 64 52 51 50 49 46 45 42 43 46 46 43 40 41 42 44 46 43 48 48 48 49 51
45 58 44 46 40 48 52 46 48 58 53 48 62 53 40 53 58 61 64 60 56 53 50 52 52 50 49 49 49 50 51 45 44 43 45 44 48 49 48 48 45 46 46 46
44 48 59 53 48 49 50 51 50 43 44 50 45 51 51 56 62 64 60 56 52 52 50 52 52 51 49 47 47 49 52 51 47 48 50 55 55 54 55 56 56 56 55 55
34 26 64 59 47 50 55 43 42 34 34 48 52 58 56 57 60 61 67 55 53 51 49 48 48 48 50 54 56 54 54 52 50 54 56 57 56 57 60 60 61 63 66 67
36 47 65 61 54 56 50 37 41 39 50 47 56 50 55 59 56 60 60 54 51 49 50 49 49 50 50 52 52 55 56 54 54 55 55 55 57 60 62 63 65 69 73 75
37 60 69 72 64 66 44 36 36 39 47 51 50 52 52 55 57 58 57 56 51 48 49 51 53 53 53 52 54 57 56 55 54 55 56 59 60 64 68 70 73 78 80 80
36 50 64 80 84 56 52 37 38 37 35 44 46 49 52 55 56 57 55 54 52 51 52 54 56 55 53 52 52 52 55 57 57 60 61 62 64 68 71 74 78 81 83 84
44 57 64 78 82 72 52 37 32 34 41 42 45 48 47 53 63 57 59 57 54 54 54 54 53 52 52 54 55 59 63 63 63 63 63 65 66 69 73 78 79 83 85 82
66 74 66 76 89 65 50 42 34 33 35 42 45 46 50 53 54 54 60 59 57 55 52 52 52 53 56 59 61 65 66 66 65 65 67 68 71 72 75 79 82 86 85 81
64 81 85 81 85 70 47 39 36 35 48 43 46 48 53 56 62 60 60 61 57 57 58 55 56 58 61 64 64 69 72 72 70 70 72 74 76 65 66 77 77 79 75 78
64 59 69 67 66 49 46 39 43 45 39 43 47 53 51 61 61 61 64 62 59 56 58 58 62 69 72 69 70 75 80 71 70 73 77 80 77 71 71 71 73 75 81 91
53 58 65 62 50 52 49 43 44 46 42 41 46 54 58 56 62 62 64 62 60 61 60 63 66 72 80 81 80 81 74 69 72 78 82 81 77 72 74 72 76 85 90 94
48 48 50 55 51 50 44 44 38 42 42 42 52 54 54 58 64 61 63 61 60 60 62 65 68 78 86 82 80 77 74 73 78 84 84 87 74 76 80 80 81 90 91 87
51 34 36 30 28 40 43 45 45 45 44 44 48 58 58 58 61 62 62 59 59 62 66 70 76 85 87 82 83 82 78 76 81 85 84 81 77 80 84 87 87 72 68 67

GFSCGP_sfc_rhum_108.txt.gz
RH
53 62 67 57 57 57 60 73 74 59 51 59 60 58 51 44 45 40 34 32 29 31 71 76 79 86 88 85 83 84 86 89 97 96 94 93 86 83 68 54 51 53 44 49
58 62 50 50 56 61 64 72 71 59 54 55 61 64 52 48 43 36 35 32 30 33 34 75 82 86 84 85 84 83 84 93 94 95 96 90 90 90 84 76 46 43 42 48
68 43 47 49 59 63 62 72 72 68 67 65 69 72 61 48 40 34 50 63 64 66 68 57 84 85 84 84 86 86 85 90 92 94 95 97 94 92 85 69 50 50 43 46
51 40 38 53 61 61 71 57 64 76 87 96 73 93 75 64 53 74 81 90 88 83 77 72 80 87 87 84 84 85 84 87 92 91 92 90 90 86 96 93 92 91 78 47
30 36 43 61 49 58 56 57 78 79 90 86 84 94 75 83 82 75 74 82 84 90 83 85 88 84 83 83 87 85 88 94 93 92 91 92 89 95 98 97 96 97 93 73
44 40 49 57 48 54 54 74 74 80 84 89 95 91 87 89 90 85 80 81 80 90 93 94 92 89 90 92 90 93 94 93 94 93 94 90 93 97 99 99 99 97 94 81
47 37 42 51 47 49 72 87 94 88 95 93 89 97 98 80 85 90 90 91 88 94 96 97 96 95 94 96 95 94 94 97 94 94 94 95 98 99 99 98 97 92 92 67
63 44 40 42 49 52 86 88 98 95 93 92 78 91 90 71 61 81 83 87 91 96 96 97 97 97 98 98 96 97 97 98 97 98 98 98 97 98 98 98 97 93 85 83
62 55 43 45 41 60 66 92 90 96 95 94 90 69 81 73 65 71 85 88 89 90 95 96 97 98 98 99 98 96 98 98 97 96 98 99 98 99 98 97 96 94 78 64
52 68 45 40 48 57 74 78 89 95 98 92 87 77 68 68 75 77 91 92 89 83 78 85 88 91 97 98 98 98 97 98 98 98 97 98 97 95 95 90 78 66 64 63
51 58 43 41 43 48 50 50 78 86 90 95 83 78 56 63 74 90 90 88 85 74 64 68 75 77 89 88 92 95 93 94 90 85 91 84 77 63 58 58 55 54 57 57
51 57 66 42 39 42 48 47 75 92 86 94 95 82 61 67 64 74 69 72 80 71 63 56 54 55 62 55 62 56 53 49 47 46 46 48 48 51 52 53 52 50 50 52
46 53 51 26 34 38 46 49 51 76 81 81 78 52 52 57 68 65 65 64 62 60 57 51 47 51 48 52 48 47 46 46 45 42 43 44 46 46 50 53 52 51 53 53
45 59 42 36 31 48 48 44 55 61 58 51 64 52 47 59 63 67 64 57 54 52 50 49 48 48 48 48 51 49 49 47 46 44 46 47 48 49 50 50 49 48 49 50
35 40 59 54 51 51 50 49 55 54 46 48 42 51 58 65 69 74 64 57 53 51 49 50 52 55 56 54 53 52 52 50 48 48 51 58 57 57 58 59 60 59 59 60
34 23 57 53 51 55 57 55 57 48 34 44 53 51 57 65 72 70 66 58 56 54 52 50 51 52 54 57 56 55 56 55 52 56 60 60 60 61 64 65 66 67 69 70
34 45 67 58 55 59 50 45 41 35 48 41 53 47 61 60 56 66 66 58 55 54 53 51 52 55 57 58 57 59 59 59 60 60 61 61 62 65 68 69 70 74 78 79
42 58 72 70 65 67 46 47 38 33 42 51 50 51 56 59 61 58 58 58 55 53 54 54 55 56 57 59 61 60 58 58 58 61 63 63 65 69 72 73 76 79 82 82
40 56 63 82 83 56 52 41 37 37 32 48 48 51 55 59 61 60 52 56 54 53 56 57 58 58 58 60 59 58 60 62 62 64 66 67 68 71 74 76 80 83 84 85
51 60 65 83 83 68 45 40 34 33 39 41 46 50 53 59 61 55 64 58 56 54 57 58 56 56 56 58 60 63 67 67 68 68 68 70 72 75 78 81 82 85 86 87
61 67 61 67 89 68 50 45 33 36 41 43 47 48 55 56 55 51 62 62 59 58 56 56 55 55 58 64 64 68 71 74 73 72 74 75 77 79 81 83 86 87 86 78
65 83 85 79 85 73 48 40 27 32 48 47 49 48 53 54 60 64 63 63 60 60 61 57 60 62 69 67 67 74 78 78 74 76 76 78 78 66 65 75 77 80 79 82
65 59 71 67 65 48 50 42 42 45 39 44 48 49 51 58 62 64 66 64 62 59 59 61 61 72 74 71 74 79 83 74 75 78 82 85 77 72 73 75 79 82 87 94
59 62 67 61 52 51 50 51 50 45 43 42 46 52 56 54 62 63 66 65 63 63 63 67 70 76 84 84 82 81 75 73 78 85 88 82 80 75 78 79 84 93 94 95
58 59 59 62 48 52 46 49 46 44 48 43 50 54 55 56 65 64 66 64 64 63 67 69 72 81 90 85 82 79 76 77 83 90 90 78 77 81 85 84 86 90 92 88
50 46 46 44 30 35 37 36 49 47 46 47 50 60 59 58 62 64 65 62 62 65 70 74 82 87 87 85 86 84 80 80 85 91 84 87 82 85 84 90 91 75 72 70

GFSCGP_sfc_rhum_111.txt.gz
RH
47 41 46 46 50 51 54 63 64 53 45 53 53 52 48 43 43 43 37 30 25 23 20 40 73 74 76 76 79 80 82 82 93 96 96 92 89 78 70 63 60 49 45 46
44 40 39 45 50 55 57 58 58 52 49 54 60 55 50 42 43 38 39 46 51 50 34 38 64 75 75 76 82 79 82 89 93 94 95 94 88 80 72 73 55 56 46 47
51 33 42 39 49 50 48 55 54 62 63 62 59 57 54 52 50 49 53 60 62 68 65 58 52 80 79 77 81 81 80 88 92 94 93 94 92 89 83 70 64 56 50 48
45 33 34 42 50 50 60 49 57 69 67 67 63 73 55 62 61 60 61 64 68 70 70 69 60 68 82 77 84 83 81 85 92 94 96 93 95 95 94 93 93 92 91 84
30 34 39 50 40 50 46 54 68 67 74 67 73 79 54 68 78 74 66 68 68 69 74 75 67 60 79 77 82 83 85 83 93 97 94 95 97 97 95 95 95 95 96 95
43 37 39 49 46 48 53 65 62 66 68 69 76 86 60 88 89 80 73 72 77 77 78 83 77 72 79 80 80 86 90 93 95 95 93 93 96 97 97 97 98 99 97 95
43 32 35 46 40 42 65 74 88 73 87 74 69 73 70 88 71 75 85 86 87 89 94 90 86 84 86 85 85 90 94 98 96 95 94 95 96 98 96 96 96 98 97 96
55 39 38 37 40 44 76 77 95 90 90 86 68 86 80 80 68 70 81 84 82 88 92 95 95 94 93 97 97 96 97 98 96 95 97 96 98 99 96 96 97 96 94 92
53 51 38 40 38 50 52 75 78 94 89 89 81 62 85 74 69 72 86 84 85 81 86 91 94 97 96 97 98 97 97 97 96 97 96 98 97 97 98 95 94 95 93 92
45 58 40 38 48 47 52 65 73 85 97 87 64 64 60 86 86 81 87 86 85 79 80 85 91 97 97 97 98 97 97 96 90 94 94 97 95 96 97 96 97 97 96 88
44 47 38 39 36 36 43 41 61 76 80 87 76 62 51 69 84 83 77 75 79 78 73 79 73 82 90 92 91 92 92 91 92 94 95 96 92 87 80 78 70 59 61 63
46 49 52 36 34 36 39 41 57 71 65 84 83 59 50 57 74 63 61 60 59 61 58 63 70 63 60 71 62 63 68 63 67 57 50 51 49 49 48 47 47 47 50 49
41 43 37 17 28 30 37 40 43 61 71 67 62 38 43 53 57 56 55 53 51 52 52 50 55 56 50 52 48 49 49 48 43 43 44 44 44 43 43 42 42 40 39 38
45 52 37 26 22 38 42 39 43 49 49 40 47 39 39 51 58 57 54 50 48 47 50 52 49 49 52 45 43 44 43 41 42 41 42 44 40 41 40 38 38 38 37 38
32 35 51 47 44 46 46 39 42 51 41 37 34 42 43 49 52 55 51 49 48 47 47 48 49 46 44 44 42 41 42 40 39 40 43 46 45 45 44 45 45 44 44 44
35 23 47 49 45 48 54 52 52 54 41 38 42 44 43 48 49 52 50 48 50 48 48 47 46 44 44 43 44 44 43 44 40 43 47 50 48 49 51 50 48 50 52 50
37 39 54 41 49 54 44 43 46 37 34 30 34 40 50 51 51 53 53 49 48 47 47 48 46 46 45 45 44 44 44 42 42 44 45 47 48 52 52 51 52 56 56 53
42 49 61 56 56 45 36 45 36 33 30 45 43 41 50 49 47 45 49 48 46 48 47 47 47 49 48 47 46 45 43 43 44 45 48 49 50 54 55 55 57 56 55 57
41 49 53 64 66 48 44 44 35 34 30 46 45 45 45 49 44 45 46 48 45 46 45 44 44 47 50 48 46 46 47 48 46 49 50 51 51 56 56 59 59 58 56 57
53 52 52 73 74 61 37 40 33 33 38 38 44 47 52 50 42 40 47 48 48 47 48 48 47 46 46 48 46 49 52 50 51 52 54 54 54 58 60 61 62 62 61 62
51 50 51 58 74 59 47 41 34 36 42 42 44 46 55 51 45 42 52 52 49 49 50 49 47 46 46 49 49 52 53 55 58 58 58 59 59 60 60 60 59 59 55 53
59 70 67 63 70 65 46 41 30 35 44 42 48 47 52 52 52 54 57 58 56 55 55 48 48 49 52 52 50 56 60 62 60 60 60 59 56 51 50 54 54 54 58 59
55 52 60 57 55 46 47 40 39 44 40 40 45 46 48 52 52 57 61 58 55 54 52 50 51 58 57 55 54 58 65 60 61 62 64 61 53 52 54 54 57 58 64 67
57 59 60 58 50 48 45 47 49 46 45 40 43 44 53 51 54 59 60 57 56 54 53 54 58 59 64 62 62 61 60 60 60 63 62 56 58 52 53 55 57 63 69 69
54 58 60 58 49 51 47 48 47 46 48 44 43 48 52 51 58 57 60 57 54 54 58 57 59 64 69 67 64 61 62 62 65 66 59 57 55 56 55 59 64 69 67 70
52 54 52 47 40 32 35 35 42 49 46 47 47 50 53 53 55 59 59 55 54 56 61 64 67 70 70 66 67 66 66 64 66 63 63 61 57 58 60 65 63 63 65 65

GFSCGP_sfc_rhum_117.txt.gz
RH
20 26 23 22 24 24 25 25 27 26 27 36 33 34 32 31 31 34 35 30 23 18 15 14 15 35 47 73 93 89 86 68 74 66 81 89 92 80 56 44 36 30 26 23
21 23 20 21 21 22 21 24 27 27 28 32 31 34 30 28 36 36 33 33 32 29 24 18 18 23 39 57 85 95 85 71 66 70 82 86 95 83 58 50 45 37 31 30
21 19 17 18 21 20 24 27 31 36 30 30 30 37 32 34 37 44 44 43 35 35 29 24 23 24 34 53 72 77 90 68 69 73 87 93 95 94 76 59 55 45 36 36
18 17 19 19 19 22 30 28 42 42 37 34 28 40 34 39 48 51 50 56 50 46 39 30 27 30 30 42 63 75 83 77 72 82 91 93 96 97 96 91 79 69 46 44
19 18 22 23 20 23 27 30 43 40 37 34 33 44 35 40 65 64 61 68 64 61 62 46 28 27 28 36 45 68 92 97 94 92 93 94 96 96 93 95 94 94 82 76
16 17 22 22 21 22 26 27 40 39 37 44 35 49 38 63 78 76 78 76 74 73 75 66 35 28 31 40 62 83 92 96 97 94 93 94 97 98 98 98 98 98 97 94
15 17 17 22 24 23 26 34 69 53 57 42 36 47 56 56 63 81 89 83 82 82 86 83 40 38 39 61 77 88 95 99 96 96 95 96 98 98 96 97 97 98 98 98
22 23 16 17 26 30 34 40 74 99 62 67 40 67 56 48 52 61 78 78 82 89 91 95 86 75 71 78 94 97 97 98 97 96 96 97 97 98 97 95 92 94 96 98
23 22 17 20 25 27 30 34 45 75 65 72 46 32 42 39 39 43 68 81 88 90 93 95 96 97 96 96 97 96 96 97 94 94 96 94 95 94 93 90 86 89 95 93
22 23 16 15 25 28 27 30 45 47 94 59 26 25 30 38 45 44 63 82 84 89 90 94 96 94 96 96 96 94 91 92 91 89 88 90 89 92 93 92 93 90 94 95
18 21 20 19 20 22 25 24 25 40 41 50 37 32 26 32 42 44 56 70 76 88 87 88 89 92 91 86 79 84 83 91 90 86 87 86 87 89 90 93 95 96 95 93
20 24 21 15 18 22 24 22 22 31 35 34 39 35 23 30 37 41 54 55 62 66 83 81 80 85 88 87 75 70 69 67 64 62 54 52 54 69 63 54 59 68 78 84
24 24 24 21 27 22 18 15 19 18 34 33 33 26 24 27 36 43 46 54 58 58 54 56 67 66 67 67 67 60 57 61 52 49 49 47 49 44 42 41 41 42 42 44
32 29 28 25 21 18 21 17 18 17 31 22 18 14 23 29 38 45 46 50 54 54 50 49 49 44 45 45 43 41 41 39 38 38 39 40 36 37 35 33 30 30 29 30
29 33 22 20 17 16 18 19 17 17 22 28 18 19 16 27 33 41 44 43 49 48 46 42 39 36 36 35 35 34 34 33 31 33 35 34 34 33 32 32 31 30 30 29
22 25 19 25 19 21 27 24 24 23 25 25 24 21 14 25 28 36 40 42 45 44 42 39 36 34 34 33 33 32 31 30 29 31 33 34 34 34 34 33 32 33 33 31
24 25 28 25 20 22 27 23 22 22 24 24 18 21 24 30 31 32 39 41 41 40 39 37 34 32 30 29 28 28 27 26 27 29 30 31 32 34 33 32 34 37 35 33
25 28 28 29 26 36 26 21 22 24 20 19 18 23 27 28 27 27 30 36 37 37 37 35 32 31 30 28 27 26 25 25 26 27 28 29 30 32 32 32 35 34 36 38
23 26 31 38 33 23 23 24 27 26 20 18 19 20 24 29 30 30 27 28 31 33 32 30 29 30 30 29 27 28 27 27 27 28 29 29 29 32 36 40 41 39 39 40
26 25 28 31 50 44 25 24 20 21 29 19 18 21 26 32 35 24 27 27 28 29 29 30 30 28 28 29 27 30 30 29 30 31 31 30 31 36 41 44 45 45 40 40
38 35 38 36 45 32 21 21 21 29 31 20 20 21 26 33 25 27 26 28 27 28 30 30 31 30 30 28 29 30 31 31 32 32 32 34 36 39 42 44 42 40 37 37
36 43 39 33 42 50 24 26 25 26 26 23 22 22 26 26 32 30 28 32 32 33 33 32 32 31 30 29 29 31 33 35 34 34 35 36 37 36 35 41 39 34 37 37
34 24 30 30 32 29 26 27 22 23 23 25 23 25 25 28 30 32 34 34 34 34 34 32 32 33 32 30 29 31 38 36 36 36 38 37 36 34 33 30 32 35 38 41
27 23 34 34 22 27 28 24 26 25 24 23 26 25 28 27 27 30 32 34 36 36 36 33 33 35 35 32 31 32 37 35 34 35 37 37 34 31 28 31 34 38 38 41
22 28 28 28 24 28 28 26 26 29 27 25 25 27 30 29 27 27 31 33 35 37 38 34 35 36 36 34 34 36 37 35 34 33 35 35 33 28 30 34 38 40 37 54
30 29 27 24 18 21 20 23 27 32 28 28 29 29 30 30 30 28 31 33 35 38 38 38 37 37 36 37 38 39 39 37 34 33 34 32 31 32 34 35 36 53 54 58

GFSCGP_sfc_rhum_123.txt.gz
RH
42 40 45 37 35 30 33 36 37 38 38 45 46 50 54 53 55 59 62 67 62 60 54 51 48 50 88 90 92 91 94 96 94 97 97 97 96 97 93 54 58 49 45 42
31 39 25 22 25 31 32 42 47 48 42 43 44 55 53 58 61 62 62 69 73 68 63 60 56 56 50 91 90 90 97 97 98 98 97 99 98 98 94 62 50 47 41 43
32 30 22 24 28 30 36 45 49 56 50 43 44 60 64 61 60 59 63 70 75 74 71 68 63 66 65 90 93 94 98 97 97 97 98 99 98 97 89 64 67 59 45 48
31 23 25 29 30 32 41 37 39 44 59 64 44 70 70 56 59 67 82 85 70 75 75 71 70 71 72 74 97 96 97 97 95 97 98 98 99 94 96 91 83 81 66 63
26 31 34 34 31 30 36 36 39 46 59 70 51 72 78 67 73 71 85 78 77 78 80 85 83 76 74 73 97 97 96 96 95 86 91 99 97 97 94 92 89 92 91 82
28 26 29 30 26 30 31 42 58 60 67 83 53 68 78 83 78 87 84 82 84 86 87 83 84 83 85 98 96 96 96 97 96 94 91 97 98 99 97 96 94 95 96 96
33 30 31 30 37 35 40 63 88 74 85 82 58 73 79 68 77 94 88 90 89 90 92 93 94 85 97 96 95 93 96 97 95 94 95 94 96 99 99 99 99 97 96 97
40 38 29 23 40 45 44 61 87 71 96 87 67 81 74 62 85 88 78 87 88 91 92 97 97 94 92 95 95 92 94 98 96 96 98 98 98 99 98 98 98 97 96 96
40 41 28 22 27 35 41 54 60 84 87 94 84 64 62 60 76 77 84 88 94 92 94 96 95 97 97 97 98 97 97 97 96 97 97 97 96 95 97 96 96 97 94 90
35 35 25 29 31 41 40 44 60 88 78 81 63 58 56 73 77 76 91 92 95 92 94 94 95 96 96 96 96 96 95 97 97 97 96 96 95 93 94 95 96 97 97 95
32 32 31 28 36 39 46 47 44 52 70 76 78 63 52 72 78 80 91 82 92 93 94 95 94 94 93 93 92 92 92 93 92 91 91 92 93 94 95 97 98 97 94 92
33 40 46 34 32 30 34 35 33 62 54 59 65 64 56 64 73 75 84 75 80 90 91 89 84 83 82 88 86 78 69 65 71 70 64 62 65 72 80 91 92 90 90 84
36 45 49 37 42 34 35 32 24 30 46 62 62 51 58 65 75 77 84 76 76 76 81 76 66 67 70 63 62 62 60 55 49 47 47 47 51 58 58 62 87 88 87 87
44 46 46 49 44 36 34 26 24 28 41 50 41 47 55 68 77 78 80 71 68 58 58 66 62 65 69 77 69 58 45 42 41 41 42 46 49 50 45 41 43 44 46 49
43 54 50 44 38 28 27 28 28 29 28 35 35 38 41 60 72 74 72 66 65 62 50 50 51 45 44 54 56 53 51 50 47 48 50 53 51 50 47 48 47 46 46 48
41 43 40 38 32 31 31 32 32 29 27 26 26 31 34 53 69 73 74 66 62 59 54 51 50 49 50 52 53 49 51 51 51 52 55 54 54 53 55 53 51 50 52 52
40 43 49 51 37 35 41 34 34 35 30 25 34 37 48 65 61 64 69 64 60 56 52 50 48 49 50 50 48 51 50 51 54 54 53 53 53 54 55 56 58 60 63 64
40 40 52 59 48 59 38 34 32 35 31 34 37 44 46 49 53 61 61 64 60 54 51 49 48 49 49 48 47 47 48 50 51 52 50 49 51 55 58 60 64 67 68 68
37 45 56 56 67 47 42 36 33 34 34 35 34 41 44 43 46 61 56 53 54 55 53 51 48 49 50 47 46 46 49 49 48 49 49 50 56 62 65 68 69 70 67 63
39 43 51 61 66 61 41 37 28 31 43 31 34 40 45 48 60 59 55 51 54 51 52 50 50 48 47 47 46 47 51 50 50 48 49 55 62 67 70 72 68 67 63 57
52 52 57 61 77 58 44 33 31 38 37 29 34 36 52 45 45 45 48 55 48 49 50 48 47 45 47 48 48 50 52 52 50 51 56 60 65 67 67 65 61 63 60 58
54 66 63 62 71 57 37 34 30 34 41 30 34 40 49 48 45 48 45 54 53 52 50 46 48 49 50 49 47 54 54 54 51 55 58 61 62 52 56 60 60 60 65 67
52 51 57 52 53 41 28 32 33 40 35 36 36 41 46 49 46 49 51 52 49 48 48 45 47 51 51 51 48 56 56 51 53 57 62 62 54 50 53 56 62 64 67 70
46 44 54 46 38 41 30 39 32 40 34 36 36 39 48 48 46 49 51 54 49 48 47 46 48 49 51 52 50 51 54 51 53 60 62 59 53 47 52 55 59 68 71 75
47 42 44 46 43 46 42 39 36 38 40 39 39 40 41 46 51 47 54 55 48 47 47 45 45 48 46 51 55 50 52 49 52 57 60 58 55 51 59 64 68 74 80 70
46 44 40 39 37 40 39 38 41 42 40 39 40 43 44 45 48 50 50 51 54 51 50 48 48 50 48 50 56 52 51 47 51 54 57 58 54 56 63 69 67 55 61 60

GFSCGP_sfc_rhum_129.txt.gz
RH
48 53 47 36 37 34 41 45 46 46 42 56 55 56 61 60 63 69 77 85 81 80 71 68 67 66 71 88 94 94 96 94 95 97 98 97 98 99 98 97 86 77 67 69
38 55 41 33 32 35 38 50 48 44 47 57 62 60 64 63 65 74 78 83 83 82 80 81 76 73 76 87 97 97 95 98 97 97 93 98 96 98 99 97 90 84 67 60
38 31 30 26 34 34 38 48 49 46 47 53 60 61 74 59 65 61 74 82 70 73 77 83 83 85 82 88 96 96 97 98 97 97 98 98 97 97 98 97 97 90 78 75
35 28 26 32 31 33 43 39 42 44 55 70 53 77 72 72 69 77 88 84 72 79 80 78 85 89 88 83 96 92 97 97 96 98 97 94 95 98 99 99 97 95 82 85
31 30 34 33 29 32 35 42 47 49 60 76 66 75 65 75 79 86 88 76 79 80 85 88 90 90 84 90 94 95 94 96 97 96 96 97 96 98 97 97 98 97 96 91
32 29 27 24 30 32 42 52 54 72 77 87 69 73 73 85 88 94 79 80 85 86 87 87 88 90 92 93 95 92 96 99 99 98 98 96 98 96 98 98 97 97 96 95
39 34 33 30 36 41 47 62 86 72 82 83 69 80 69 79 95 93 88 89 90 90 94 93 91 90 90 96 96 93 95 98 94 96 95 95 95 94 95 94 94 96 96 97
44 40 32 29 31 34 51 55 79 47 77 81 73 80 61 86 92 83 82 87 89 93 93 97 97 97 97 97 96 96 97 97 97 96 98 94 93 94 95 96 97 97 96 96
46 42 30 23 37 36 52 65 62 84 89 94 87 62 69 96 90 87 87 88 93 95 95 97 97 97 98 97 96 95 96 97 96 97 98 98 97 96 98 96 96 96 95 94
36 40 31 32 35 45 45 55 66 81 75 70 72 64 62 59 83 91 91 91 92 93 93 95 97 97 96 96 96 96 96 97 97 97 96 96 96 95 96 96 97 96 95 93
34 32 38 33 39 48 54 60 57 64 73 67 70 58 53 59 84 94 92 92 93 94 93 94 94 94 93 92 94 94 94 95 97 96 96 97 98 97 97 98 97 94 95 94
32 36 43 32 36 36 46 47 48 60 57 69 69 61 63 76 88 91 91 90 92 91 86 84 86 87 89 88 90 91 90 92 91 91 93 96 97 96 96 95 92 89 91 89
36 45 49 43 39 42 38 35 38 47 53 66 72 48 72 88 94 91 90 85 89 86 74 81 80 77 77 68 64 60 60 60 60 64 71 78 86 91 93 90 84 82 82 83
44 51 41 44 39 44 39 37 34 34 47 48 66 55 79 86 91 94 90 90 83 80 76 84 89 85 79 70 63 59 54 53 55 58 63 66 66 73 70 70 67 63 62 64
40 44 55 50 45 50 43 32 34 32 33 36 34 46 37 71 81 90 89 86 72 81 80 84 84 82 79 62 53 49 52 53 56 56 58 60 60 59 59 59 59 63 66 69
52 47 57 43 40 48 48 40 39 33 32 34 33 36 36 58 85 92 90 83 77 83 79 74 78 64 64 54 62 59 60 59 57 59 61 59 58 60 61 63 64 67 75 80
51 50 49 43 48 45 43 41 37 37 35 27 32 27 54 77 74 81 86 78 74 72 71 68 59 66 66 62 59 61 61 60 60 61 60 59 59 61 62 63 65 73 84 88
56 51 58 53 55 48 32 40 36 33 34 34 31 31 51 53 62 68 72 73 72 68 65 64 60 61 61 60 60 61 61 61 60 61 60 60 62 65 66 68 72 76 82 88
46 59 66 56 58 42 35 39 41 36 32 36 29 32 48 75 75 80 72 65 65 62 60 60 57 60 62 60 60 60 63 62 61 62 61 63 65 68 70 73 75 76 75 78
49 52 52 68 59 50 33 40 36 30 38 33 31 42 68 68 76 65 72 67 64 59 56 58 58 58 58 60 59 59 64 64 62 60 60 65 67 71 74 76 73 72 68 64
56 59 59 67 66 49 38 37 34 33 33 37 38 48 62 59 45 42 62 68 62 57 57 56 56 53 51 58 56 59 64 61 58 58 63 69 72 73 75 76 72 71 67 68
54 64 65 68 66 50 42 38 31 33 42 40 43 52 53 50 49 57 66 69 68 64 60 55 54 53 56 54 52 61 60 59 59 63 69 74 78 64 65 69 72 68 72 77
51 52 54 48 47 37 39 40 34 38 34 37 42 47 44 53 52 58 74 73 67 62 58 53 52 52 56 52 48 55 56 59 63 69 75 78 75 70 66 68 73 74 76 79
52 51 51 42 33 40 40 41 39 40 34 34 39 44 52 52 54 55 65 73 68 63 58 53 52 53 56 51 47 48 59 57 61 69 76 78 75 70 66 65 69 75 79 81
48 45 52 46 41 47 40 41 35 37 40 36 39 44 46 51 54 53 60 72 66 63 58 53 51 52 51 51 50 54 54 56 59 63 68 68 68 68 66 70 75 73 78 75
58 54 43 47 32 31 30 32 41 38 40 38 37 44 49 49 50 53 58 65 67 64 61 56 52 52 50 51 51 55 54 52 56 62 64 62 62 65 69 75 84 62 64 64